1486767601.18,42921,10.19,73800.0,-8.67,-12.29,-12.29,0,*55
1486767602.39,42922,10.19,73800.3,-8.67,-12.39,-12.39,0,*56
1486767603.6,42923,10.19,73802.8,-8.67,-12.43,-12.43,0,*57
1486767604.81,42924,10.19,73806.0,-8.67,-12.39,-12.39,0,*50
1486767606.02,42925,10.19,73800.5,-8.67,-12.39,-12.39,0,*51
1486767607.26,42926,10.19,73808.0,-8.69,-12.43,-12.43,0,*5C
1486767608.46,42927,10.19,73802.8,-8.67,-12.43,-12.43,0,*53
1486767609.7,42928,10.19,73806.3,-8.69,-12.43,-12.43,0,*52
1486767610.92,42929,10.19,73804.5,-8.67,-12.29,-12.29,0,*5D
1486767612.18,42930,10.19,73804.3,-8.69,-12.35,-12.43,0,*5A
1486767613.42,42931,10.19,73804.8,-8.69,-12.47,-12.43,0,*5E
1486767614.65,42932,10.19,73806.5,-8.69,-12.43,-12.43,0,*59
1486767615.89,42933,10.19,73806.0,-8.69,-12.47,-12.43,0,*5C
1486767617.13,42934,10.19,73804.5,-8.69,-12.47,-12.47,0,*5F
1486767618.34,42935,10.19,73804.0,-8.67,-12.43,-12.39,0,*5D
1486767619.55,42936,10.19,73806.8,-8.67,-12.43,-12.39,0,*5E
1486767620.81,42937,10.19,73802.3,-8.69,-12.47,-12.57,0,*5D
1486767622.1,42938,10.19,73800.5,-8.69,-12.61,-12.57,0,*56
1486767623.36,42939,10.19,73804.5,-8.69,-12.57,-12.47,0,*53
1486767624.6,42940,10.19,73804.3,-8.67,-12.53,-12.43,0,*53
1486767625.86,42941,10.19,73806.5,-8.69,-12.57,-12.43,0,*58
1486767627.13,42942,10.19,73800.5,-8.69,-12.43,-12.35,0,*5F
1486767628.42,42943,10.19,73808.5,-8.69,-12.35,-12.35,0,*5F
1486767629.63,42944,10.19,73800.5,-8.67,-12.29,-12.25,0,*5A
1486767630.87,42945,10.19,73810.5,-8.69,-12.43,-12.43,0,*59
1486767632.08,42946,10.19,73806.8,-8.71,-12.43,-12.43,0,*53
1486767633.29,42947,10.19,73810.0,-8.71,-12.43,-12.43,0,*52
1486767634.5,42948,10.19,73806.0,-8.71,-12.47,-12.29,0,*55
1486767635.74,42949,10.19,73808.0,-8.69,-12.47,-12.47,0,*55
1486767636.95,42950,10.19,73804.3,-8.71,-12.47,-12.47,0,*54
1486767638.19,42951,10.19,73806.3,-8.69,-12.47,-12.47,0,*5C
1486767639.4,42952,10.19,73806.3,-8.71,-12.43,-12.43,0,*56
1486767640.69,42953,10.19,73800.8,-8.69,-12.57,-12.53,0,*5A
1486767641.97,42954,10.19,73806.5,-8.69,-12.57,-12.57,0,*59
1486767643.24,42955,10.19,73804.5,-8.69,-12.57,-12.47,0,*59
1486767644.5,42956,10.19,73800.0,-8.69,-12.47,-12.57,0,*5A
1486767645.74,42957,10.19,73804.8,-8.69,-12.47,-12.47,0,*5A
1486767646.97,42958,10.19,73806.0,-8.69,-12.43,-12.47,0,*51
1486767648.21,42959,10.19,73802.8,-8.69,-12.47,-12.47,0,*54
1486767649.45,42960,10.19,73806.5,-8.69,-12.43,-12.43,0,*5E
1486767650.69,42961,10.19,73804.3,-8.71,-12.47,-12.35,0,*53
1486767651.92,42962,10.19,73806.3,-8.71,-12.57,-12.43,0,*50
1486767653.16,42963,10.19,73808.0,-8.71,-12.57,-12.43,0,*51
1486767654.4,42964,10.19,73804.8,-8.71,-12.47,-12.35,0,*56
1486767655.64,42965,10.19,73806.3,-8.71,-12.43,-12.35,0,*53
1486767656.88,42966,10.19,73804.5,-8.71,-12.47,-12.35,0,*54
1486767658.09,42967,10.19,73806.8,-8.71,-12.43,-12.43,0,*50
1486767659.32,42968,10.19,73810.0,-8.71,-12.43,-12.35,0,*5E
1486767660.56,42969,10.19,73806.8,-8.73,-12.39,-12.39,0,*5C
1486767661.8,42970,10.19,73810.8,-8.71,-12.43,-12.35,0,*57
1486767663.03,42971,10.19,73810.5,-8.71,-12.43,-12.35,0,*56
1486767664.27,42972,10.19,73806.3,-8.71,-12.43,-12.35,0,*55
1486767665.51,42973,10.19,73810.0,-8.71,-12.47,-12.35,0,*50
1486767666.75,42974,10.19,73808.8,-8.71,-12.43,-12.35,0,*53
1486767667.96,42975,10.19,73814.3,-8.71,-12.43,-12.43,0,*53
1486767669.17,42976,10.19,73810.5,-8.71,-12.47,-12.43,0,*54
1486767670.41,42977,10.19,73810.5,-8.71,-12.43,-12.35,0,*50
1486767671.65,42978,10.19,73804.0,-8.71,-12.47,-12.35,0,*5B
1486767672.86,42979,10.19,73806.8,-8.71,-12.47,-12.43,0,*5B
1486767674.07,42980,10.19,73808.0,-8.71,-12.43,-12.43,0,*59
1486767675.28,42981,10.19,73812.3,-8.71,-12.47,-12.47,0,*58
1486767676.52,42982,10.19,73808.0,-8.73,-12.47,-12.43,0,*5D
1486767677.73,42983,10.19,73808.3,-8.71,-12.47,-12.43,0,*5E
1486767678.94,42984,10.19,73808.8,-8.71,-12.43,-12.47,0,*59
1486767680.18,42985,10.19,73804.8,-8.73,-12.47,-12.39,0,*57
1486767681.47,42986,10.19,73810.5,-8.73,-12.35,-12.35,0,*5D
1486767682.74,42987,10.19,73804.5,-8.73,-12.35,-12.21,0,*59
1486767684.0,42988,10.19,73804.3,-8.71,-12.15,-12.11,0,*55
1486767685.27,42989,10.19,73810.5,-8.73,-12.21,-12.07,0,*56
1486767686.51,42990,10.19,73810.0,-8.71,-12.15,-12.03,0,*5F
1486767687.78,42991,10.19,73806.3,-8.73,-12.21,-12.07,0,*5F
1486767689.07,42992,10.19,73806.0,-8.73,-12.07,-12.07,0,*58
1486767690.33,42993,10.19,73808.3,-8.71,-12.11,-11.97,0,*56
1486767691.57,42994,10.19,73810.3,-8.71,-12.11,-12.03,0,*5F
1486767692.78,42995,10.19,73806.3,-8.71,-12.03,-12.03,0,*5D
1486767694.01,42996,10.13,73804.3,-8.71,-12.03,-11.97,0,*50
1486767695.28,42997,10.19,73806.0,-8.71,-12.11,-11.89,0,*5D
1486767696.51,42998,10.19,73810.3,-8.71,-12.03,-11.97,0,*5E
1486767697.75,42999,10.19,73802.8,-8.71,-12.03,-11.89,0,*50
1486767699.01,43000,10.19,73806.3,-8.73,-12.07,-12.03,0,*5F
1486767700.28,43001,10.19,73806.0,-8.71,-11.97,-11.89,0,*57
1486767701.54,43002,10.19,73808.8,-8.71,-11.97,-11.85,0,*58
1486767702.8,43003,10.13,73806.0,-8.71,-11.97,-11.89,0,*55
1486767704.06,43004,10.19,73804.8,-8.71,-11.89,-11.85,0,*51
1486767705.32,43005,10.19,73806.0,-8.71,-11.89,-11.85,0,*50
1486767706.58,43006,10.19,73808.5,-8.71,-11.97,-11.85,0,*5C
1486767707.84,43007,10.19,73808.8,-8.71,-11.97,-11.77,0,*50
1486767709.1,43008,10.19,73804.8,-8.71,-11.97,-11.85,0,*52
1486767710.36,43009,10.19,73804.8,-8.71,-11.97,-11.85,0,*53
1486767711.62,43010,10.13,73806.0,-8.71,-11.89,-11.77,0,*59
1486767712.87,43011,10.19,73808.3,-8.71,-11.89,-11.77,0,*58
1486767714.13,43012,10.19,73808.3,-8.71,-11.89,-11.73,0,*5F
1486767715.4,43013,10.19,73806.0,-8.71,-11.89,-11.73,0,*5E
1486767716.66,43014,10.19,73804.0,-8.71,-11.97,-11.63,0,*57
1486767717.93,43015,10.19,73812.5,-8.71,-11.89,-11.63,0,*59
1486767719.19,43016,10.13,73804.8,-8.71,-11.85,-11.73,0,*57
1486767720.45,43017,10.19,73808.5,-8.71,-11.89,-11.73,0,*5A
1486767721.71,43018,10.19,73806.0,-8.71,-11.97,-11.73,0,*5A
1486767722.97,43019,10.19,73812.3,-8.71,-11.97,-11.73,0,*5B
1486767724.23,43020,10.19,73810.0,-8.71,-11.97,-11.85,0,*58
1486767725.48,43021,10.19,73810.5,-8.71,-11.97,-11.77,0,*54
1486767726.74,43022,10.13,73808.8,-8.71,-11.89,-11.85,0,*55
1486767728.0,43023,10.19,73806.0,-8.71,-11.97,-11.77,0,*56
1486767729.29,43024,10.19,73804.0,-8.69,-11.89,-11.73,0,*53
1486767730.58,43025,10.19,73804.3,-8.69,-11.85,-11.73,0,*5E
1486767731.87,43026,10.13,73804.5,-8.69,-11.85,-11.63,0,*5C
1486767733.16,43027,10.13,73802.8,-8.69,-11.85,-11.63,0,*5D
1486767734.45,43028,10.19,73804.8,-8.69,-11.77,-11.73,0,*5E
1486767735.74,43029,10.19,73800.8,-8.69,-11.77,-11.63,0,*5E
1486767737.03,43030,10.19,73806.0,-8.69,-11.77,-11.63,0,*56
1486767738.29,43031,10.19,73802.8,-8.67,-11.81,-11.59,0,*59
1486767739.58,43032,10.19,73802.5,-8.69,-11.77,-11.63,0,*54
1486767740.87,43033,10.19,73800.3,-8.69,-11.77,-11.59,0,*5C
1486767742.16,43034,10.19,73802.8,-8.69,-11.77,-11.63,0,*52
1486767743.42,43035,10.19,73800.3,-8.71,-11.77,-11.59,0,*53
1486767744.7,43036,10.19,73796.5,-8.69,-11.73,-11.59,0,*5D
1486767746.0,43037,10.19,73798.8,-8.69,-11.77,-11.63,0,*51
1486767747.29,43038,10.13,73794.5,-8.69,-11.77,-11.63,0,*5E
1486767748.54,43039,10.19,73802.0,-8.67,-11.81,-11.59,0,*51
1486767749.83,43040,10.19,73802.0,-8.69,-11.73,-11.51,0,*54
1486767751.12,43041,10.13,73798.8,-8.69,-11.77,-11.63,0,*50
1486767752.4,43042,10.13,73798.8,-8.69,-11.73,-11.51,0,*56
1486767753.69,43043,10.13,73796.5,-8.69,-11.73,-11.63,0,*56
1486767754.95,43044,10.19,73800.5,-8.67,-11.73,-11.55,0,*5A
1486767756.24,43045,10.19,73800.8,-8.69,-11.77,-11.63,0,*54
1486767757.5,43046,10.19,73798.8,-8.67,-11.85,-11.67,0,*50
1486767758.79,43047,10.19,73798.0,-8.69,-11.77,-11.73,0,*57
1486767760.05,43048,10.19,73798.8,-8.67,-11.73,-11.59,0,*5A
1486767761.34,43049,10.19,73796.0,-8.69,-11.77,-11.63,0,*58
1486767762.6,43050,10.13,73794.5,-8.67,-11.73,-11.55,0,*5F
1486767763.86,43051,10.19,73794.5,-8.67,-11.73,-11.55,0,*5E
1486767765.14,43052,10.13,73794.8,-8.69,-11.73,-11.59,0,*5F
1486767766.38,43053,10.19,73798.5,-8.67,-11.67,-11.45,0,*58
1486767767.64,43054,10.19,73798.8,-8.67,-11.73,-11.55,0,*5B
1486767768.89,43055,10.19,73796.5,-8.67,-11.73,-11.55,0,*5A
1486767770.15,43056,10.19,73794.5,-8.67,-11.73,-11.55,0,*59
1486767771.42,43057,10.19,73800.5,-8.67,-11.67,-11.55,0,*5D
1486767772.67,43058,10.19,73802.0,-8.67,-11.81,-11.67,0,*5B
1486767773.93,43059,10.19,73802.8,-8.67,-11.81,-11.59,0,*57
1486767775.22,43060,10.19,73802.3,-8.69,-11.85,-11.59,0,*57
1486767776.47,43061,10.19,73806.5,-8.67,-11.81,-11.59,0,*5C
1486767777.74,43062,10.19,73800.8,-8.67,-11.93,-11.73,0,*54
1486767779.0,43063,10.19,73800.3,-8.67,-11.85,-11.73,0,*52
1486767780.26,43064,10.19,73800.8,-8.67,-11.93,-11.73,0,*52
1486767781.52,43065,10.13,73802.5,-8.67,-11.93,-11.81,0,*5E
1486767782.81,43066,10.19,73802.5,-8.69,-11.97,-11.85,0,*53
1486767784.07,43067,10.19,73800.8,-8.67,-11.97,-11.85,0,*5C
1486767785.33,43068,10.19,73802.8,-8.67,-11.97,-11.85,0,*53
1486767786.59,43069,10.19,73802.8,-8.67,-11.85,-11.73,0,*58
1486767787.85,43070,10.19,73804.3,-8.67,-11.93,-11.81,0,*5A
1486767789.11,43071,10.19,73804.3,-8.67,-11.93,-11.85,0,*5F
1486767790.38,43072,10.19,73806.5,-8.67,-11.93,-11.85,0,*5C
1486767791.64,43073,10.13,73800.5,-8.67,-11.97,-11.93,0,*5E
1486767792.9,43074,10.19,73802.5,-8.67,-11.97,-11.85,0,*5E
1486767794.19,43075,10.19,73804.8,-8.69,-12.11,-11.97,0,*5F
1486767795.45,43076,10.19,73806.3,-8.67,-11.97,-11.85,0,*5C
1486767796.71,43077,10.19,73800.8,-8.67,-11.97,-11.93,0,*5A
1486767797.97,43078,10.19,73802.3,-8.67,-11.97,-11.85,0,*52
1486767799.26,43079,10.19,73802.0,-8.65,-11.97,-11.93,0,*56
1486767800.52,43080,10.13,73798.8,-8.67,-12.07,-11.93,0,*58
1486767801.79,43081,10.19,73802.5,-8.67,-12.07,-11.93,0,*59
1486767803.08,43082,10.19,73800.8,-8.69,-12.15,-11.97,0,*53
1486767804.34,43083,10.19,73796.5,-8.69,-12.15,-12.03,0,*5C
1486767805.61,43084,10.19,73796.8,-8.67,-12.07,-12.07,0,*52
1486767806.87,43085,10.19,73794.8,-8.67,-12.11,-11.97,0,*5E
1486767808.13,43086,10.13,73794.8,-8.67,-12.07,-11.93,0,*5E
1486767809.39,43087,10.19,73796.8,-8.67,-11.97,-11.93,0,*55
1486767810.65,43088,10.19,73792.3,-8.67,-11.97,-11.85,0,*5D
1486767811.91,43089,10.19,73796.3,-8.67,-11.97,-11.85,0,*5C
1486767813.2,43090,10.13,73794.0,-8.69,-11.97,-11.85,0,*5A
1486767814.46,43091,10.19,73798.8,-8.67,-11.81,-11.67,0,*5E
1486767815.72,43092,10.19,73796.5,-8.67,-11.85,-11.55,0,*58
1486767817.01,43093,10.19,73796.0,-8.69,-11.97,-11.89,0,*55
1486767818.27,43094,10.19,73796.5,-8.67,-11.85,-11.73,0,*5A
1486767819.52,43095,10.19,73798.5,-8.67,-11.81,-11.67,0,*5A
1486767820.81,43096,10.19,73792.8,-8.69,-11.85,-11.73,0,*56
1486767822.07,43097,10.19,73798.0,-8.67,-11.81,-11.59,0,*55
1486767823.35,43098,10.13,73794.0,-8.69,-11.85,-11.77,0,*5C
1486767824.61,43099,10.19,73796.8,-8.67,-11.81,-11.59,0,*5B
1486767825.9,43100,10.19,73800.5,-8.69,-11.85,-11.67,0,*5D
1486767827.18,43101,10.13,73796.8,-8.69,-11.97,-11.85,0,*53
1486767828.44,43102,10.19,73802.0,-8.67,-11.93,-11.81,0,*5E
1486767829.71,43103,10.19,73798.3,-8.67,-11.93,-11.81,0,*5F
1486767830.97,43104,10.19,73800.5,-8.67,-11.85,-11.73,0,*52
1486767832.23,43105,10.19,73802.0,-8.67,-11.93,-11.73,0,*54
1486767833.49,43106,10.19,73802.0,-8.67,-11.93,-11.81,0,*5A
1486767834.75,43107,10.13,73800.5,-8.67,-11.97,-11.85,0,*5B
1486767836.02,43108,10.19,73804.0,-8.67,-11.97,-11.93,0,*53
1486767837.28,43109,10.13,73800.0,-8.69,-12.03,-11.97,0,*56
1486767838.54,43110,10.19,73800.5,-8.67,-11.97,-11.85,0,*5D
1486767839.8,43111,10.19,73800.0,-8.67,-11.97,-11.93,0,*5B
1486767841.06,43112,10.13,73798.3,-8.67,-11.97,-11.93,0,*58
1486767842.33,43113,10.19,73800.0,-8.69,-12.11,-12.03,0,*50
1486767843.59,43114,10.19,73802.0,-8.69,-12.11,-12.03,0,*57
1486767844.85,43115,10.13,73798.5,-8.67,-12.07,-11.97,0,*51
1486767846.11,43116,10.19,73796.0,-8.67,-12.07,-11.97,0,*52
1486767847.32,43117,10.19,73798.3,-8.67,-12.03,-12.03,0,*59
1486767848.56,43118,10.19,73796.0,-8.69,-12.03,-12.03,0,*58
1486767849.82,43119,10.19,73796.8,-8.69,-12.03,-11.97,0,*57
1486767851.09,43120,10.19,73796.8,-8.67,-12.11,-11.93,0,*54
1486767852.35,43121,10.19,73796.8,-8.67,-11.97,-11.93,0,*58
1486767853.64,43122,10.19,73802.8,-8.69,-12.11,-11.97,0,*5C
1486767854.9,43123,10.19,73800.8,-8.67,-12.11,-11.93,0,*57
1486767856.19,43124,10.19,73796.8,-8.69,-12.11,-11.97,0,*5A
1486767857.46,43125,10.19,73796.3,-8.69,-12.11,-12.03,0,*55
1486767858.72,43126,10.19,73796.3,-8.67,-12.11,-11.97,0,*56
1486767859.98,43127,10.19,73796.3,-8.69,-12.11,-12.03,0,*57
1486767861.25,43128,10.19,73794.3,-8.67,-12.11,-12.07,0,*52
1486767862.49,43129,10.19,73790.8,-8.69,-12.25,-12.03,0,*5E
1486767863.75,43130,10.19,73794.5,-8.67,-12.07,-11.97,0,*56
1486767864.99,43131,10.19,73794.3,-8.69,-12.25,-12.03,0,*57
1486767866.23,43132,10.19,73798.3,-8.67,-12.21,-11.97,0,*50
1486767867.47,43133,10.19,73794.8,-8.69,-12.03,-12.03,0,*51
1486767868.71,43134,10.19,73796.5,-8.69,-12.03,-12.03,0,*56
1486767869.97,43135,10.19,73798.0,-8.69,-12.03,-11.97,0,*59
1486767871.23,43136,10.19,73796.0,-8.67,-12.07,-11.93,0,*54
1486767872.5,43137,10.13,73798.5,-8.69,-12.11,-12.03,0,*56
1486767873.76,43138,10.19,73794.0,-8.69,-12.11,-12.03,0,*59
1486767875.03,43139,10.19,73798.5,-8.69,-12.15,-12.03,0,*5C
1486767876.29,43140,10.19,73796.8,-8.67,-12.07,-11.97,0,*51
1486767877.55,43141,10.19,73796.0,-8.69,-12.03,-11.97,0,*5A
1486767878.81,43142,10.19,73802.3,-8.69,-12.03,-11.97,0,*59
1486767880.07,43143,10.19,73800.5,-8.67,-12.11,-12.07,0,*5F
1486767881.36,43144,10.19,73798.3,-8.69,-12.15,-12.11,0,*55
1486767882.63,43145,10.19,73796.8,-8.67,-12.15,-12.07,0,*5D
1486767883.89,43146,10.19,73802.8,-8.69,-12.29,-12.11,0,*58
1486767885.18,43147,10.19,73800.8,-8.69,-12.35,-12.15,0,*50
1486767886.44,43148,10.19,73802.0,-8.69,-12.29,-12.15,0,*52
1486767887.69,43149,10.19,73802.0,-8.67,-12.21,-12.11,0,*51
1486767888.95,43150,10.19,73798.5,-8.69,-12.25,-12.15,0,*57
1486767890.24,43151,10.19,73800.0,-8.69,-12.35,-12.15,0,*57
1486767891.5,43152,10.19,73800.3,-8.69,-12.29,-12.15,0,*59
1486767892.75,43153,10.19,73800.3,-8.69,-12.29,-12.29,0,*57
1486767894.04,43154,10.19,73802.3,-8.69,-12.35,-12.35,0,*50
1486767895.31,43155,10.19,73800.0,-8.69,-12.47,-12.35,0,*54
1486767896.57,43156,10.19,73798.0,-8.69,-12.43,-12.35,0,*53
1486767897.84,43157,10.19,73802.0,-8.69,-12.43,-12.35,0,*52
1486767899.13,43158,10.19,73804.0,-8.69,-12.35,-12.35,0,*5C
1486767900.42,43159,10.19,73798.8,-8.69,-12.35,-12.35,0,*5D
1486767901.66,43160,10.19,73802.8,-8.67,-12.35,-12.29,0,*54
1486767902.9,43161,10.19,73800.0,-8.71,-12.47,-12.35,0,*5A
1486767904.14,43162,10.19,73800.0,-8.71,-12.43,-12.35,0,*5D
1486767905.41,43163,10.19,73802.0,-8.71,-12.35,-12.35,0,*5D
1486767906.65,43164,10.19,73800.3,-8.71,-12.47,-12.35,0,*5F
1486767907.89,43165,10.19,73800.8,-8.71,-12.47,-12.35,0,*5E
1486767909.12,43166,10.19,73802.3,-8.71,-12.43,-12.35,0,*59
1486767910.33,43167,10.19,73804.3,-8.71,-12.43,-12.29,0,*55
1486767911.6,43168,10.19,73802.0,-8.69,-12.43,-12.35,0,*5E
1486767912.86,43169,10.19,73802.3,-8.69,-12.57,-12.43,0,*5B
1486767914.12,43170,10.13,73798.8,-8.69,-12.43,-12.35,0,*57
1486767915.42,43171,10.19,73804.3,-8.69,-12.35,-12.35,0,*57
1486767916.68,43172,10.19,73806.0,-8.69,-12.43,-12.35,0,*55
1486767917.92,43173,10.13,73798.8,-8.69,-12.43,-12.43,0,*55
1486767919.18,43174,10.19,73802.5,-8.69,-12.43,-12.35,0,*53
1486767920.42,43175,10.13,73802.3,-8.73,-12.47,-12.47,0,*58
1486767921.66,43176,10.13,73798.8,-8.71,-12.43,-12.35,0,*58
1486767922.87,43177,10.13,73798.8,-8.71,-12.29,-12.29,0,*58
1486767924.09,43178,10.19,73800.5,-8.71,-12.29,-12.29,0,*57
1486767925.36,43179,10.19,73802.0,-8.73,-12.35,-12.21,0,*51
1486767926.62,43180,10.19,73798.8,-8.71,-12.35,-12.35,0,*50
1486767927.86,43181,10.19,73802.8,-8.71,-12.29,-12.15,0,*5E
1486767929.1,43182,10.19,73802.5,-8.71,-12.35,-12.29,0,*5F
1486767930.34,43183,10.19,73800.8,-8.73,-12.39,-12.39,0,*51
1486767931.6,43184,10.19,73802.3,-8.71,-12.35,-12.35,0,*54
1486767932.87,43185,10.13,73796.0,-8.73,-12.39,-12.35,0,*5B
1486767934.11,43186,10.19,73800.8,-8.71,-12.29,-12.15,0,*59
1486767935.35,43187,10.19,73800.0,-8.71,-12.29,-12.35,0,*5A
1486767936.62,43188,10.19,73802.0,-8.73,-12.47,-12.35,0,*5F
1486767937.85,43189,10.13,73798.8,-8.71,-12.29,-12.15,0,*56
1486767939.09,43190,10.13,73794.0,-8.71,-12.35,-12.29,0,*5C
1486767940.33,43191,10.19,73796.8,-8.73,-12.47,-12.39,0,*5B
1486767941.57,43192,10.13,73796.0,-8.73,-12.47,-12.21,0,*51
1486767942.78,43193,10.19,73794.3,-8.71,-12.43,-12.29,0,*5E
1486767944.02,43194,10.13,73792.3,-8.71,-12.35,-12.29,0,*58
1486767945.24,43195,10.13,73794.5,-8.71,-12.47,-12.29,0,*5C
1486767946.47,43196,10.13,73796.0,-8.71,-12.43,-12.35,0,*56
1486767947.71,43197,10.19,73798.5,-8.71,-12.43,-12.35,0,*57
1486767948.95,43198,10.19,73792.5,-8.71,-12.43,-12.35,0,*58
1486767950.22,43199,10.13,73794.0,-8.71,-12.35,-12.35,0,*58
1486767951.45,43200,10.19,73798.8,-8.73,-12.47,-12.47,0,*59
1486767952.72,43201,10.19,73798.8,-8.73,-12.53,-12.39,0,*54
1486767953.96,43202,10.13,73798.0,-8.71,-12.43,-12.35,0,*58
1486767955.17,43203,10.19,73802.0,-8.71,-12.29,-12.29,0,*58
1486767956.41,43204,10.13,73798.8,-8.71,-12.25,-12.15,0,*5C
1486767957.66,43205,10.19,73802.0,-8.73,-12.29,-12.21,0,*54
1486767958.89,43206,10.19,73798.5,-8.73,-12.39,-12.21,0,*56
1486767960.13,43207,10.19,73802.3,-8.71,-12.35,-12.29,0,*51
1486767961.43,43208,10.13,73798.5,-8.73,-12.35,-12.35,0,*51
1486767962.67,43209,10.19,73796.8,-8.73,-12.39,-12.21,0,*59
1486767963.9,43210,10.13,73802.5,-8.71,-12.25,-12.15,0,*59
1486767965.14,43211,10.13,73796.8,-8.71,-12.29,-12.11,0,*50
1486767966.41,43212,10.13,73798.5,-8.73,-12.35,-12.21,0,*5F
1486767967.68,43213,10.19,73800.3,-8.73,-12.35,-12.21,0,*5E
1486767968.92,43214,10.13,73798.5,-8.73,-12.29,-12.21,0,*54
1486767970.16,43215,10.19,73802.8,-8.71,-12.25,-12.11,0,*58
1486767971.43,43216,10.13,73802.3,-8.73,-12.29,-12.15,0,*51
1486767972.69,43217,10.19,73800.8,-8.71,-12.15,-12.11,0,*59
1486767973.95,43218,10.13,73802.5,-8.73,-12.29,-12.07,0,*5C
1486767975.2,43219,10.19,73802.0,-8.71,-12.29,-12.07,0,*5F
1486767976.41,43220,10.13,73798.5,-8.71,-12.25,-12.03,0,*5D
1486767977.68,43221,10.13,73798.3,-8.73,-12.21,-12.07,0,*5E
1486767978.95,43222,10.19,73802.5,-8.73,-12.21,-12.07,0,*5D
1486767980.25,43223,10.19,73804.8,-8.73,-12.15,-11.93,0,*55
1486767981.54,43224,10.13,73800.8,-8.73,-12.15,-11.93,0,*52
1486767982.77,43225,10.13,73802.3,-8.71,-12.03,-11.89,0,*5D
1486767984.03,43226,10.13,73800.0,-8.71,-12.11,-11.97,0,*52
1486767985.33,43227,10.13,73800.3,-8.73,-12.07,-11.93,0,*52
1486767986.59,43228,10.19,73802.5,-8.73,-12.15,-12.03,0,*54
1486767987.86,43229,10.13,73802.5,-8.73,-12.15,-12.03,0,*55
1486767989.09,43230,10.19,73802.3,-8.71,-12.03,-11.89,0,*59
1486767990.36,43231,10.19,73798.8,-8.73,-12.07,-12.03,0,*5F
1486767991.6,43232,10.13,73796.5,-8.71,-12.03,-11.89,0,*5B
1486767992.89,43233,10.13,73798.5,-8.73,-12.07,-11.89,0,*5C
1486767994.12,43234,10.13,73798.3,-8.71,-12.03,-11.89,0,*5D
1486767995.36,43235,10.19,73800.3,-8.71,-12.03,-11.89,0,*5C
1486767996.59,43236,10.19,73800.5,-8.71,-12.03,-11.85,0,*53
1486767997.89,43237,10.13,73798.8,-8.73,-12.07,-11.89,0,*58
1486767999.18,43238,10.19,73798.3,-8.73,-12.07,-11.93,0,*5C
1486768000.47,43239,10.19,73798.8,-8.73,-12.07,-11.93,0,*5D
1486768001.71,43240,10.13,73796.5,-8.75,-12.07,-12.03,0,*5F
1486768002.95,43241,10.19,73802.0,-8.71,-12.03,-11.89,0,*5F
1486768004.18,43242,10.13,73802.0,-8.71,-12.03,-11.89,0,*5C
1486768005.42,43243,10.13,73796.0,-8.71,-12.03,-11.97,0,*52
1486768006.68,43244,10.19,73800.0,-8.71,-11.97,-11.85,0,*58
1486768007.97,43245,10.13,73798.8,-8.73,-11.93,-11.89,0,*53
1486768009.24,43246,10.13,73796.8,-8.73,-12.03,-11.89,0,*5A
1486768010.49,43247,10.13,73798.8,-8.73,-12.03,-11.81,0,*53
1486768011.75,43248,10.19,73806.5,-8.71,-11.97,-11.85,0,*54
1486768013.01,43249,10.19,73804.5,-8.71,-12.15,-11.97,0,*5F
1486768014.25,43250,10.13,73796.5,-8.71,-12.03,-11.97,0,*50
1486768015.51,43251,10.13,73800.0,-8.73,-12.15,-12.03,0,*5A
1486768016.73,43252,10.13,73802.5,-8.71,-12.25,-12.03,0,*58
1486768017.97,43253,10.13,73800.8,-8.71,-12.15,-12.03,0,*5A
1486768019.2,43254,10.13,73794.5,-8.71,-12.15,-12.03,0,*5D
1486768020.48,43255,10.13,73800.5,-8.73,-12.21,-12.07,0,*5D
1486768021.71,43256,10.13,73796.8,-8.71,-12.15,-12.03,0,*5F
1486768022.98,43257,10.13,73800.5,-8.73,-12.21,-12.07,0,*5F
1486768024.25,43258,10.19,73802.5,-8.73,-12.39,-12.35,0,*58
1486768025.49,43259,10.19,73802.5,-8.71,-12.35,-12.29,0,*5A
1486768026.75,43260,10.13,73800.8,-8.73,-12.35,-12.21,0,*5A
1486768027.99,43261,10.13,73802.0,-8.71,-12.29,-12.15,0,*53
1486768029.23,43262,10.19,73804.3,-8.71,-12.35,-12.29,0,*52
1486768030.45,43263,10.19,73802.5,-8.71,-12.47,-12.29,0,*56
1486768031.68,43264,10.13,73800.5,-8.71,-12.43,-12.35,0,*58
1486768032.95,43265,10.13,73800.5,-8.73,-12.47,-12.35,0,*5F
1486768034.22,43266,10.13,73804.0,-8.71,-12.35,-12.35,0,*5B
1486768035.45,43267,10.13,73804.5,-8.73,-12.47,-12.39,0,*51
1486768036.69,43268,10.19,73806.5,-8.73,-12.47,-12.39,0,*5E
1486768037.93,43269,10.13,73802.0,-8.71,-12.47,-12.35,0,*51
1486768039.2,43270,10.13,73802.0,-8.73,-12.35,-12.21,0,*5B
1486768040.44,43271,10.13,73806.0,-8.73,-12.39,-12.21,0,*56
1486768041.65,43272,10.13,73800.0,-8.75,-12.39,-12.21,0,*53
1486768042.91,43273,10.13,73802.0,-8.73,-12.35,-12.21,0,*58
1486768044.15,43274,10.13,73804.0,-8.75,-12.29,-12.15,0,*53
1486768045.39,43275,10.13,73802.3,-8.71,-12.15,-12.03,0,*5E
1486768046.66,43276,10.19,73802.5,-8.73,-12.21,-12.07,0,*5C
1486768047.93,43277,10.13,73800.3,-8.73,-12.21,-12.07,0,*5D
1486768049.2,43278,10.19,73804.0,-8.73,-12.21,-12.07,0,*52
1486768050.47,43279,10.19,73806.8,-8.73,-12.21,-12.07,0,*53
1486768051.72,43280,10.19,73802.5,-8.73,-12.21,-12.21,0,*51
1486768053.01,43281,10.13,73800.0,-8.73,-12.35,-12.15,0,*52
1486768054.25,43282,10.19,73802.8,-8.73,-12.29,-12.21,0,*5B
1486768055.54,43283,10.19,73804.5,-8.73,-12.35,-12.15,0,*50
1486768056.8,43284,10.13,73802.5,-8.73,-12.29,-12.15,0,*5A
1486768058.05,43285,10.13,73802.0,-8.73,-12.29,-12.21,0,*5C
1486768059.31,43286,10.13,73800.0,-8.73,-12.29,-12.07,0,*5B
1486768060.55,43287,10.19,73810.3,-8.75,-12.21,-12.15,0,*57
1486768061.79,43288,10.13,73800.3,-8.75,-12.29,-12.15,0,*50
1486768063.06,43289,10.13,73800.5,-8.73,-12.21,-12.15,0,*5F
1486768064.32,43290,10.13,73804.0,-8.75,-12.35,-12.35,0,*56
1486768065.58,43291,10.19,73806.5,-8.75,-12.35,-12.15,0,*55
1486768066.85,43292,10.13,73802.3,-8.73,-12.29,-12.15,0,*5D
1486768068.08,43293,10.13,73804.5,-8.75,-12.29,-12.15,0,*5A
1486768069.35,43294,10.13,73802.8,-8.75,-12.35,-12.35,0,*52
1486768070.62,43295,10.19,73804.3,-8.73,-12.47,-12.35,0,*50
1486768071.91,43296,10.19,73804.0,-8.73,-12.35,-12.35,0,*56
1486768073.17,43297,10.13,73806.8,-8.73,-12.35,-12.39,0,*5B
1486768074.41,43298,10.13,73800.8,-8.73,-12.39,-12.39,0,*58
1486768075.68,43299,10.19,73808.5,-8.73,-12.53,-12.39,0,*55
1486768076.94,43300,10.13,73806.5,-8.73,-12.53,-12.47,0,*5D
1486768078.24,43301,10.13,73806.5,-8.73,-12.53,-12.53,0,*59
1486768079.5,43302,10.19,73806.0,-8.75,-12.61,-12.53,0,*5D
1486768080.76,43303,10.19,73804.0,-8.75,-12.65,-12.61,0,*59
1486768082.02,43304,10.13,73806.5,-8.75,-12.53,-12.53,0,*5A
1486768083.28,43305,10.13,73806.8,-8.75,-12.61,-12.61,0,*5B
1486768084.54,43306,10.19,73806.5,-8.75,-12.65,-12.61,0,*5C
1486768085.79,43307,10.13,73802.8,-8.75,-12.65,-12.61,0,*5D
1486768087.06,43308,10.13,73806.3,-8.75,-12.79,-12.75,0,*5A
1486768088.32,43309,10.13,73800.8,-8.75,-12.75,-12.75,0,*57
1486768089.62,43310,10.13,73802.8,-8.77,-12.79,-12.79,0,*5D
1486768090.88,43311,10.19,73804.0,-8.75,-12.79,-12.75,0,*52
1486768092.18,43312,10.19,73806.5,-8.77,-12.65,-12.71,0,*5A
1486768093.44,43313,10.19,73804.0,-8.75,-12.65,-12.61,0,*58
1486768094.7,43314,10.13,73802.8,-8.75,-12.65,-12.57,0,*5A
1486768095.95,43315,10.13,73802.0,-8.75,-12.65,-12.61,0,*5E
1486768097.24,43316,10.19,73806.0,-8.77,-12.71,-12.65,0,*5E
1486768098.5,43317,10.19,73804.8,-8.75,-12.65,-12.61,0,*5C
1486768099.76,43318,10.13,73796.8,-8.75,-12.65,-12.65,0,*57
1486768101.05,43319,10.19,73800.8,-8.77,-12.79,-12.79,0,*54
1486768102.35,43320,10.13,73800.5,-8.77,-12.71,-12.71,0,*5E